Location: Archemont
(49.1579°N, 1.7598°E)
Time: 12:11:47
(UTC+00:00)

Cosmos 1190 Rocket - Pass Details

Date: 03 February 2023
Orbit: 756 x 778 km, 74.1° (Epoch: 26 March)

Event Time Altitude Azimuth Distance (km) Brightness Sun altitude
Rises 17:33:10 0° 187° (S) 3,248 7.6 -7.0°
Reaches altitude 10° 17:35:35 10° 183° (S) 2,323 6.8 -7.4°
Maximum altitude 17:40:43 55° 107° (ESE) 930 4.2 -8.2°
Drops below altitude 10° 17:45:53 10° 31° (NNE) 2,330 6.1 -9.0°
Sets 17:48:18 0° 27° (NNE) 3,259 6.9 -9.4°
